Regional Weather Roundup
Issued by NWS Newport/Morehead, NC

Current Version | Previous Version | Graphics & Text | Print | Product List | Glossary Off
Versions: 1 2 3 4 5 6 7 8 9 10 11 12 13 14 15 16 17 18 19 20 21 22 23 24 25 26 27 28 29 30 31 32 33 34 35 36 37 38 39 40 41 42 43 44 45 46 47 48 49 50

193
ASUS42 KMHX 030924
RWRMHX
WEATHER ROUNDUP FOR EASTERN NORTH CAROLINA
NATIONAL WEATHER SERVICE NEWPORT/MOREHEAD CITY NC
400 AM EST SAT DEC 03 2016

NOTE: "FAIR" INDICATES FEW OR NO CLOUDS BELOW 12,000 FEET
WITH NO SIGNIFICANT WEATHER AND/OR OBSTRUCTIONS TO VISIBILITY

NCZ015>017-031-032-045>047-102-103-031000-
NORTH COAST

CITY           SKY/WX    TMP DP  RH WIND       PRES   REMARKS
EDENTON        CLEAR     38  33  81 CALM      30.20R
ELIZABETH CITY CLEAR     35  31  85 W6        30.18R
KITTY HAWK     SUNNY     44  33  64 NW9G17    30.14S
MANTEO         CLEAR     44  32  64 N12G17    30.16R

$$

NCZ045>047-081-094-103-104-031000-
CENTRAL COAST

CITY           SKY/WX    TMP DP  RH WIND       PRES   REMARKS
FRISCO         NOT AVBL

$$

NCZ095-097-098-100-101-031000-
SOUTHERN COAST

CITY           SKY/WX    TMP DP  RH WIND       PRES   REMARKS
BEAUFORT       CLEAR     43  34  70 N9        30.18S
CEDAR ISLAND   NOT AVBL
JACKSONVILLE   CLEAR     40  34  79 NW7       30.21R
PINEY ISLAND   SUNNY    N/A N/A N/A N12       30.18R
WILMINGTON     CLEAR     40  35  83 CALM      30.20S


$$

NCZ011>013-027>030-043-044-078>080-089-090>093-098-031000-
COASTAL PLAIN

CITY           SKY/WX    TMP DP  RH WIND       PRES   REMARKS
AHOSKIE        CLEAR     35  31  82 CALM      30.22R
CLINTON        PTCLDY    38  37  94 N5        30.23S
ELIZABETHTOWN  NOT AVBL
GOLDSBORO      CLEAR     41  31  68 NW7       30.21R
GREENVILLE     CLEAR     37  32  81 CALM      30.21S
HAVELOCK       CLEAR     45  33  63 N10       30.20R
KENANSVILLE    PTCLDY    41  32  70 N7        30.23R
KINSTON          N/A     38  32  80 CALM      30.22S
NEW BERN       CLEAR     40  32  73 NW5       30.21
RICHLANDS      NOT AVBL
ROCKY MOUNT    CLEAR     38  32  79 NW6       30.22S
WASHINGTON     CLEAR     37  31  82 N3        30.20F
WHITEVILLE     CLEAR     43  34  70 CALM      30.20R

$$

AMZ130-135-150-152-154-156-158-170-250-252-270-ANZ085-086-088-633-658-670-031000-
MARINE OBSERVATIONS

STATION/POSITION TIME  TEMP    WIND        PRES    WAVE   SWELL
                       AIR SEA DIR/SP/G            HT/PER HT/PER
                 (UTC) (F)     (DEG/KT/KT) (MB)    (FT/S) (FT/S)
CHESAPEAKE LIGHT NOT AVBL
64 E VA BEACH    0850   49 60  340/ 23/ 27 1018.5    8/ 6
DUCK             0900   45 56  330/ 18/ 20 1020.3
2 E DUCK         NOT AVBL
OREGON INLET     0900   45 55  330/ 12/ 17 1020.7
13E OREGON INLT  0900      60                N/A     5/ 5   2/ 9
HATTERAS CG      0900   48 60  340/ 22/ 26 1020.5
DIAMOND BUOY     0850   53 74  350/ 21/ 25 1019.7    5/ 6   2/13
CAPE LOOKOUT     0900   46     340/ 13/ 17 1021.4
BEAUFORT LAB     0900   45 58  350/ 10/ 14 1020.9
30 SE NEW RVR IN 0908   53 71   10/ 19/ 27 1021.7
30 SE NEW RVR IN NOT AVBL
27 SE WRIGHTSVLE 0908   54 68   20/ 19/ 27 1021.4
5 SE WRIGHTSVLE  0908   47 63   10/ 21/ 31 1021.9
225 S CAPE HAT   0850   65 74  350/ 14/ 17 1018.5    4/ 6   2/ 8
41 SE CHARLESTON 0850   62 75  350/ 16/ 21 1021.1    3/ 9   2/ 9

$$




USA.gov is the U.S. government's official web portal to all federal, state and local government web resources and services.